Theta_e
317 327 326 327 330 331 335 332 330 331 331 332 334 348 353 351 362 371 361 362 360 359 362 353 344 339 336 335 336 342 346 347 345 341 335 336 334 334 338 334 336 341 348 350 348 347 347 347 346
326 324 326 329 330 335 335 330 330 329 329 330 332 342 350 344 348 356 361 361 362 361 362 359 345 340 337 335 334 337 341 345 345 342 338 339 335 337 336 336 337 346 347 350 351 348 346 344 342
323 325 329 330 332 334 332 328 328 328 329 330 337 342 337 336 347 358 360 360 362 363 361 361 346 342 338 336 334 333 338 342 344 344 341 343 340 339 338 340 341 343 346 348 352 348 344 339 338
324 325 326 328 333 330 328 327 326 329 330 330 335 336 331 345 352 357 358 358 360 362 363 362 347 345 341 337 335 333 332 334 339 344 345 346 344 340 339 344 347 346 345 349 351 348 345 343 340
321 326 328 331 331 327 325 325 325 327 328 330 333 334 329 339 351 354 354 353 355 356 362 361 348 347 344 340 336 333 333 331 332 336 342 345 344 340 340 343 344 344 342 348 351 348 344 342 339
324 325 327 329 329 325 324 324 324 325 326 326 330 331 328 325 330 345 349 350 349 353 356 361 348 347 346 343 340 336 334 332 331 332 335 338 339 340 340 341 342 342 337 339 344 345 342 339 337
322 326 326 326 327 324 323 323 323 324 324 324 326 330 328 325 323 325 340 346 347 349 352 357 360 349 346 345 343 340 337 334 332 331 332 333 336 340 341 340 341 338 335 338 341 341 341 341 341
323 324 324 324 325 324 323 322 322 322 323 323 324 327 326 323 322 324 325 330 339 340 346 348 355 362 360 356 344 342 341 338 335 333 332 333 334 334 336 339 340 337 337 339 340 341 341 342 340
321 322 323 323 323 324 322 322 322 322 322 322 323 323 322 321 323 324 325 325 325 329 337 341 346 353 354 353 359 353 344 342 339 338 335 337 343 344 344 343 342 342 336 336 340 342 341 341 335
321 323 323 322 322 322 322 321 321 321 322 322 322 322 321 321 322 323 324 324 324 324 324 327 347 348 349 349 358 359 359 356 353 350 349 348 345 345 345 344 343 339 342 339 339 341 341 341 341
322 324 321 321 321 321 321 320 320 320 321 321 320 320 321 320 321 322 322 323 323 323 322 323 325 343 349 346 352 349 351 355 356 355 353 352 351 347 346 345 347 347 347 345 343 345 344 340 340
321 321 321 321 320 319 320 320 319 319 320 320 319 319 320 320 321 321 321 321 322 322 323 323 323 325 340 345 339 344 343 347 350 351 354 352 353 351 350 348 346 345 346 346 344 340 344 341 339
321 320 319 319 319 319 319 319 319 319 319 320 320 320 320 320 320 320 321 321 322 323 323 325 326 327 329 331 336 337 339 341 346 347 347 350 354 351 351 350 349 346 345 344 343 341 340 339 339
320 320 320 319 320 320 319 319 319 319 320 320 320 320 320 321 322 322 324 325 326 325 325 325 328 329 330 331 332 336 338 338 342 343 344 350 351 352 351 351 350 348 346 344 343 342 341 339 338
319 320 320 320 320 319 319 319 319 320 320 320 320 321 321 322 324 325 326 326 326 327 328 329 330 328 328 330 333 335 332 332 338 336 344 348 352 353 353 350 350 348 347 346 345 344 344 342 340
320 320 321 321 320 320 319 319 321 321 320 320 321 321 322 324 325 326 325 326 327 329 330 331 332 332 332 331 330 331 331 332 332 337 336 351 353 352 351 351 349 348 347 348 346 345 345 344 342
322 321 321 320 321 320 320 320 320 321 321 321 321 321 324 324 325 326 325 325 327 328 331 333 334 334 335 334 332 330 332 336 333 335 335 337 347 345 347 346 346 347 346 348 347 347 346 344 342
321 320 320 320 321 321 321 321 321 322 322 322 321 323 324 325 326 325 325 326 327 328 330 332 334 336 337 336 334 331 327 334 335 334 333 337 341 342 345 342 348 348 344 347 343 345 346 345 343
320 321 321 322 321 321 322 322 322 322 322 322 321 324 324 324 324 324 325 326 326 328 328 330 333 335 337 335 332 329 327 326 331 334 335 340 339 341 343 341 344 346 342 342 342 342 343 345 344
321 322 322 322 321 321 321 322 323 322 321 320 323 323 324 324 325 324 325 325 326 326 327 328 330 334 336 334 331 330 332 326 327 331 335 338 340 342 342 342 339 335 333 331 339 341 339 340 341
322 322 322 320 320 321 322 323 322 321 320 322 323 323 324 324 325 325 324 324 325 325 325 326 328 332 335 336 332 329 332 335 330 329 336 339 343 343 341 343 341 332 335 332 332 336 340 340 342
321 320 320 320 322 323 322 323 322 322 321 322 322 323 323 324 322 322 322 323 323 322 324 325 326 328 332 336 335 332 333 336 331 329 332 334 338 341 342 341 336 338 338 339 338 337 337 338 340
320 320 320 321 323 324 322 322 322 320 320 320 322 321 321 323 321 321 320 320 321 321 322 323 324 326 329 330 337 335 336 335 334 333 333 336 336 340 337 330 334 341 340 339 339 339 340 341 343
320 321 322 322 322 322 322 322 321 319 320 319 320 319 320 322 322 320 319 319 320 320 321 323 323 324 326 328 327 337 338 342 340 336 333 331 330 333 332 335 339 339 338 338 339 338 340 340 341
321 321 324 321 320 320 319 319 320 321 321 320 319 319 319 321 320 320 319 319 319 320 321 321 322 324 323 325 325 333 336 338 341 338 332 330 328 327 341 331 325 326 333 336 337 336 337 338 338
320 322 322 324 321 319 319 320 320 321 320 319 320 321 322 322 319 319 319 318 321 321 322 320 322 323 322 323 324 328 331 334 335 336 338 337 338 340 340 338 336 337 336 336 335 335 334 334 336
320 321 321 322 321 322 321 320 319 320 319 319 320 320 320 320 318 318 318 318 319 319 321 320 322 322 322 321 321 323 325 329 331 332 333 333 334 333 333 334 333 333 333 333 333 334 335 336 336
320 320 321 321 325 323 320 319 318 318 317 319 321 321 321 319 318 319 318 317 316 317 316 320 319 320 320 319 318 319 319 324 327 328 328 330 332 332 333 333 332 329 327 326 326 326 326 327 328
318 318 319 319 320 321 321 320 319 318 319 320 320 320 318 318 318 319 317 317 316 316 316 316 316 317 317 318 318 317 318 320 325 326 327 326 326 328 327 326 324 322 321 318 318 318 318 319 318
315 316 317 326 321 320 327 323 317 317 318 320 319 319 318 318 319 318 317 316 316 315 315 316 316 316 316 317 317 314 316 320 323 325 325 324 325 322 320 319 318 316 314 313 313 313 314 313 311
Wind_Speed
8 10 10 11 7 8 10 8 3 7 4 11 6 11 11 19 19 4 16 13 9 11 10 12 14 13 11 9 9 10 10 11 11 10 11 10 10 11 11 12 14 13 12 10 10 9 8 7 6
8 8 10 7 8 11 4 6 6 7 8 7 1 4 4 16 16 15 13 11 9 8 9 11 15 14 11 10 9 10 10 11 11 12 12 11 12 11 13 13 14 12 11 9 8 7 7 6 6
8 9 9 9 11 11 8 8 7 6 4 5 2 11 11 9 11 9 12 11 10 7 8 11 14 13 11 10 9 8 9 10 11 12 13 12 11 12 13 13 13 12 11 10 7 7 7 6 5
6 6 7 10 17 6 10 8 5 7 5 5 4 13 10 9 3 8 7 6 9 7 8 7 12 11 10 9 9 9 9 9 10 11 13 12 12 13 14 13 11 11 11 10 9 8 7 7 6
14 9 9 15 5 4 2 5 4 4 3 7 5 10 11 11 7 4 3 2 8 9 7 8 11 10 9 9 9 8 8 9 10 11 12 13 13 13 14 14 13 12 12 11 11 10 10 9 9
9 7 13 14 10 5 1 4 5 3 5 6 2 5 7 10 11 9 4 4 4 8 5 10 9 9 9 9 9 9 9 10 10 11 12 12 13 14 15 14 14 13 13 12 12 12 12 11 11
13 10 15 14 12 6 5 6 4 6 5 8 10 8 8 12 11 8 5 4 3 4 8 10 10 10 10 10 10 10 11 11 11 12 13 13 13 14 15 15 15 15 14 14 14 14 14 13 13
9 8 9 7 8 5 6 8 2 4 10 4 6 3 8 9 9 9 6 7 5 3 4 5 10 9 8 11 12 11 12 13 13 13 13 13 14 15 16 17 16 16 16 16 16 16 16 15 15
9 10 11 3 4 8 5 8 4 1 7 3 6 7 7 7 9 8 7 8 7 3 7 8 8 6 8 8 13 7 12 14 15 15 16 15 13 13 14 16 16 18 18 18 18 18 17 17 17
11 10 11 10 8 5 3 8 5 6 4 4 4 5 7 9 8 10 11 11 11 11 11 13 8 7 10 9 6 7 10 8 11 13 13 14 15 15 15 15 19 19 20 20 20 20 20 19 17
3 4 7 4 6 6 3 6 3 7 9 7 9 12 12 12 11 9 12 12 12 13 12 13 12 5 11 18 12 11 16 13 15 13 14 16 14 15 15 15 12 15 18 18 20 19 20 20 20
6 6 2 5 4 4 3 6 8 4 7 6 10 11 12 12 11 10 12 13 15 14 13 13 14 13 8 12 17 14 19 16 12 16 14 16 16 15 15 15 15 17 15 16 17 21 21 20 20
5 3 2 3 4 3 3 10 6 7 2 7 10 12 12 11 10 11 10 11 14 16 16 14 14 13 13 13 16 17 17 20 19 13 16 14 16 16 14 16 16 16 15 16 17 18 19 20 21
3 1 4 3 1 7 8 11 8 12 3 9 9 10 10 8 7 9 7 10 10 13 15 16 15 15 14 14 18 18 17 20 20 15 16 13 17 17 17 16 16 16 16 17 20 19 18 21 22
2 9 7 8 3 9 4 19 19 8 4 10 11 8 7 7 5 7 11 12 13 14 15 16 17 15 14 15 16 18 20 23 23 23 17 15 16 17 16 15 15 15 16 17 19 19 18 20 23
10 8 10 14 6 3 8 12 7 2 9 11 9 8 6 5 6 9 11 11 13 14 15 16 16 17 19 19 18 18 22 21 23 17 18 13 14 16 14 14 15 17 14 16 18 20 23 20 22
9 7 7 6 6 4 10 15 13 7 10 12 7 7 5 6 4 8 12 13 15 16 18 19 18 18 17 18 20 20 21 22 23 18 22 18 14 14 14 14 15 12 15 17 18 20 21 23 24
12 11 11 12 8 11 14 17 14 14 13 13 6 3 3 4 5 7 10 13 15 16 18 19 19 19 20 20 20 21 23 23 25 23 21 17 16 17 16 17 15 16 16 16 19 18 22 25 26
10 11 13 12 10 9 15 18 19 17 15 12 6 2 3 3 5 6 9 10 13 16 19 22 23 23 21 20 20 21 24 25 24 25 22 18 15 15 16 18 17 21 22 21 20 21 19 24 24
11 14 14 11 11 15 19 22 20 20 2 3 3 4 4 6 7 7 9 9 12 15 19 21 24 24 23 19 19 21 23 23 25 26 25 23 19 17 17 18 19 18 20 20 20 22 24 25 23
12 12 13 16 18 19 20 19 15 4 2 4 6 4 5 4 8 8 9 12 14 14 16 20 23 24 24 23 20 19 20 20 21 23 14 18 13 17 17 17 17 18 16 21 20 21 20 24 25
12 10 12 17 17 15 17 19 18 7 9 12 8 7 4 5 8 10 13 14 15 16 16 20 20 24 24 30 19 18 20 20 20 24 20 25 29 17 19 19 19 15 18 18 20 20 21 21 24
13 12 16 18 20 19 20 10 4 5 9 8 12 5 4 2 5 13 14 19 16 16 16 20 20 22 24 34 25 16 17 19 18 23 17 8 7 12 16 18 17 14 16 15 16 19 20 22 22
11 14 18 21 17 12 8 5 12 14 17 10 10 10 6 7 8 11 16 20 22 19 18 17 21 21 23 28 39 18 16 17 20 11 11 11 17 17 21 21 12 7 15 18 19 20 20 21 23
10 15 11 7 10 13 9 15 19 12 7 6 10 12 10 9 12 14 18 23 23 23 18 23 21 19 21 24 32 31 24 14 15 13 11 16 14 15 10 5 21 17 23 19 21 21 22 24 24
17 9 7 17 14 20 20 18 6 6 5 6 11 11 12 10 12 15 15 23 26 26 21 18 17 17 20 22 25 29 25 22 18 15 11 16 15 17 19 12 9 11 14 19 20 23 23 22 24
10 13 8 13 16 16 14 14 22 20 17 9 10 14 7 10 12 12 14 17 18 20 11 13 15 16 17 21 25 29 33 24 20 18 13 13 10 13 17 18 18 18 18 19 20 19 20 21 20
11 11 11 8 12 17 16 22 16 18 18 19 24 24 25 12 16 11 12 12 15 17 10 25 16 17 19 19 21 29 31 30 19 19 17 13 13 14 15 15 15 16 17 16 16 16 18 17 11
10 12 13 12 10 15 17 11 22 24 15 18 20 21 12 22 21 11 8 10 13 16 19 21 21 19 18 19 16 21 23 37 23 15 13 14 17 13 12 12 13 13 14 15 14 13 14 9 8
8 12 10 7 13 13 14 17 20 14 11 8 8 11 10 17 17 20 13 14 13 16 18 19 21 22 22 17 19 19 22 32 21 21 17 16 13 11 12 12 10 11 11 12 10 9 8 8 10
Wind_Direction
289 287 272 269 248 231 245 107 289 23 14 4 348 339 41 41 20 52 60 48 54 104 138 150 164 171 166 163 163 170 186 193 195 198 193 187 181 178 177 176 173 172 164 161 164 169 172 182 198
283 273 252 276 249 244 141 71 31 5 5 331 310 281 31 44 3 78 61 44 55 115 145 158 169 173 173 173 174 177 190 196 200 200 199 195 187 188 183 182 183 181 176 176 177 180 187 196 214
277 260 271 245 246 284 59 68 11 9 21 351 309 38 22 355 15 26 40 45 63 113 147 172 174 173 175 182 183 185 195 203 202 207 206 205 201 196 194 191 194 193 193 192 197 201 206 213 222
237 219 247 260 269 63 3 47 342 8 97 18 349 93 72 36 24 38 52 64 82 110 138 177 179 177 183 185 190 193 195 201 206 211 211 213 212 208 204 202 207 206 207 208 209 217 227 234 245
228 259 244 280 238 74 23 15 328 27 33 8 311 94 69 37 44 67 83 45 107 98 124 157 177 183 191 195 200 205 207 211 212 212 216 220 218 217 216 216 215 213 213 217 221 226 235 243 250
241 258 258 234 173 125 149 332 336 357 45 25 49 120 76 61 22 350 20 97 50 111 121 148 185 191 201 205 209 214 217 218 217 222 226 226 227 227 224 227 224 222 220 224 230 236 241 245 246
250 259 258 285 107 176 25 305 359 328 39 43 335 255 104 38 357 343 350 300 223 135 173 164 178 199 212 213 218 223 225 226 227 225 226 229 230 232 233 232 231 230 228 230 233 238 245 248 250
280 275 274 260 142 205 95 279 345 355 62 313 335 25 47 1 335 329 336 318 275 285 229 224 160 176 192 222 219 229 233 231 230 232 233 234 233 233 234 236 238 235 238 240 241 242 245 249 253
250 251 239 139 303 98 102 281 85 359 281 43 37 38 8 348 333 322 301 295 282 269 262 263 292 163 254 241 189 213 238 238 235 236 237 236 233 239 238 239 235 252 246 242 245 247 249 251 254
252 265 60 39 17 348 13 291 355 274 208 205 326 342 328 322 324 318 317 315 305 314 311 315 174 233 259 238 199 230 232 233 239 242 237 239 238 241 243 239 242 241 247 250 247 247 249 253 252
289 13 86 123 20 316 333 238 327 297 267 44 326 316 321 310 303 303 304 305 310 318 309 299 300 251 266 284 252 221 241 213 231 229 241 239 240 241 246 246 232 232 249 244 249 247 247 246 250
120 58 335 83 144 250 269 354 287 290 325 349 301 318 307 307 309 310 305 317 307 306 306 298 300 316 278 266 275 259 262 248 215 250 220 243 238 242 246 248 244 243 243 236 244 246 239 239 243
91 110 207 162 210 262 341 264 289 271 153 300 308 308 307 306 313 307 327 313 319 310 302 299 298 294 292 286 267 267 271 269 253 228 260 240 241 248 250 245 250 257 264 255 248 252 253 248 245
76 254 179 198 152 219 275 294 253 263 170 286 300 310 300 314 328 323 332 340 323 324 310 301 302 298 288 277 266 270 257 261 266 255 254 241 246 250 249 251 247 253 258 261 276 273 251 255 254
213 240 185 214 272 289 324 273 224 230 264 292 290 308 303 291 332 355 342 328 334 325 326 318 304 299 292 282 271 259 259 258 247 249 232 228 256 250 245 250 263 261 263 266 269 275 277 264 266
236 242 254 155 152 151 244 294 89 10 271 287 298 294 280 302 345 356 334 343 341 335 327 321 317 306 296 288 276 266 259 255 260 255 251 205 231 253 239 244 250 259 263 270 258 258 262 269 269
192 328 334 317 173 306 264 300 294 282 292 290 302 258 286 313 2 356 342 354 350 348 343 333 323 313 307 294 278 269 260 255 253 258 253 237 219 246 243 248 257 272 263 266 266 265 257 260 262
345 332 321 305 332 329 305 294 303 304 293 291 285 230 283 309 13 352 348 354 355 357 352 345 338 325 311 298 283 262 255 245 247 247 248 246 229 231 233 247 250 260 268 267 262 257 262 258 264
318 304 298 296 339 298 297 296 289 295 291 280 243 312 292 317 336 357 350 357 356 358 354 353 348 340 326 304 286 258 247 239 243 241 239 252 244 245 236 248 241 245 253 247 253 259 262 265 261
296 292 296 325 326 320 303 295 293 277 262 321 337 263 285 324 342 353 345 356 352 359 357 355 352 346 336 317 293 274 279 250 237 237 228 213 222 234 240 243 259 273 276 280 264 257 261 262 257
302 312 334 314 310 288 280 292 296 99 156 177 225 238 264 318 337 334 335 337 342 351 359 0 353 350 348 335 308 283 268 263 260 245 198 224 207 230 233 238 252 261 271 277 286 277 259 264 262
310 11 309 300 301 301 312 292 284 261 190 182 230 234 327 339 339 339 337 338 341 339 349 353 0 357 351 345 329 298 281 258 242 248 239 228 205 208 228 233 236 253 265 285 289 283 280 274 266
299 328 300 287 282 289 286 253 189 246 239 249 213 202 266 341 336 338 335 329 321 330 346 347 352 358 357 354 342 314 280 271 260 260 233 167 248 228 228 231 240 251 264 277 282 286 277 271 263
301 286 291 279 259 253 303 312 289 301 315 322 299 341 347 319 344 328 326 319 327 327 339 351 345 358 359 1 355 336 305 303 297 265 243 232 233 221 233 236 267 256 287 280 281 283 280 275 269
282 316 313 298 305 294 340 322 311 328 351 356 331 315 303 345 335 340 330 331 323 318 346 338 341 352 2 5 1 357 353 326 305 303 265 264 269 245 42 327 289 269 273 288 288 289 285 282 276
298 305 293 299 312 310 306 281 322 203 164 346 297 357 349 336 320 322 343 335 349 352 353 332 339 342 0 6 4 9 357 354 336 347 340 322 350 348 347 347 336 330 314 308 303 295 291 283 282
308 279 3 289 285 280 306 321 326 44 21 331 281 223 238 305 317 339 358 352 354 336 351 346 335 343 356 2 4 12 355 358 360 0 2 2 346 349 347 340 338 336 331 324 315 304 301 293 297
227 298 302 301 295 296 303 312 290 7 329 346 7 10 349 298 356 347 342 339 351 334 4 299 21 351 339 355 4 2 349 339 3 7 0 2 353 357 348 344 351 349 338 330 329 324 314 318 315
298 267 270 286 303 305 305 294 337 322 349 356 342 346 350 317 334 327 295 328 336 321 336 350 350 341 350 343 351 357 5 331 354 360 357 1 9 14 3 356 359 352 349 349 345 340 337 343 358
289 290 296 284 292 295 294 282 291 317 17 357 327 284 315 287 344 338 320 354 356 338 341 340 339 336 335 328 334 336 356 332 347 349 8 357 3 5 5 7 0 360 0 358 9 18 44 65 62